TimeCST,TemperatureF,Dew PointF,Humidity,Sea Level PressureIn,VisibilityMPH,Wind Direction,Wind SpeedMPH,Gust SpeedMPH,PrecipitationIn,Events,Conditions,WindDirDegrees,DateUTC
12:15 AM,55.4,54.5,97,30.02,4.0,SSW,9.2,-,N/A,,Clear,200,2012-12-03 06:15:00
12:35 AM,55.8,54.7,96,30.01,4.0,SSW,12.7,18.4,N/A,,Clear,200,2012-12-03 06:35:00
12:55 AM,55.8,54.7,96,30.01,4.0,SSW,15.0,-,N/A,,Clear,200,2012-12-03 06:55:00
1:15 AM,55.6,54.9,97,30.00,3.0,SSW,13.8,19.6,N/A,,Scattered Clouds,200,2012-12-03 07:15:00
1:35 AM,56.3,55.6,97,29.99,3.0,SSW,13.8,-,N/A,,Mostly Cloudy,210,2012-12-03 07:35:00
1:55 AM,56.8,56.3,98,29.99,3.0,SSW,15.0,20.7,N/A,,Overcast,210,2012-12-03 07:55:00
2:15 AM,57.2,56.7,98,29.99,2.5,SSW,13.8,-,N/A,,Overcast,210,2012-12-03 08:15:00
2:35 AM,56.8,56.3,98,29.99,2.5,SSW,15.0,20.7,N/A,,Overcast,210,2012-12-03 08:35:00
2:55 AM,56.8,56.5,99,29.98,1.5,SSW,16.1,24.2,N/A,,Overcast,210,2012-12-03 08:55:00
3:15 AM,56.8,56.5,99,29.98,2.5,SSW,16.1,20.7,N/A,,Overcast,210,2012-12-03 09:15:00
3:35 AM,56.7,56.3,99,29.98,2.5,SSW,15.0,23.0,N/A,,Overcast,210,2012-12-03 09:35:00
3:55 AM,56.7,56.3,99,29.98,2.5,SSW,16.1,20.7,N/A,,Overcast,210,2012-12-03 09:55:00
4:15 AM,56.3,56.3,100,29.98,2.0,SSW,15.0,21.9,N/A,,Overcast,210,2012-12-03 10:15:00
4:35 AM,55.8,55.6,99,29.98,2.0,SW,11.5,20.7,N/A,,Overcast,220,2012-12-03 10:35:00
4:55 AM,55.4,55.0,99,29.97,1.8,SSW,12.7,17.3,N/A,,Overcast,210,2012-12-03 10:55:00
5:15 AM,54.9,54.7,99,29.97,0.8,SSW,10.4,-,N/A,,Overcast,210,2012-12-03 11:15:00
5:35 AM,54.3,54.3,100,29.97,0.8,SSW,12.7,-,N/A,,Overcast,210,2012-12-03 11:35:00
5:55 AM,54.5,54.5,100,29.97,1.0,SW,11.5,-,N/A,,Overcast,220,2012-12-03 11:55:00
6:15 AM,54.1,54.1,100,29.97,1.5,SW,13.8,-,N/A,,Overcast,220,2012-12-03 12:15:00
6:35 AM,54.0,54.0,100,29.97,1.5,SW,10.4,-,N/A,,Overcast,220,2012-12-03 12:35:00
6:55 AM,53.4,53.4,100,29.98,1.8,SW,12.7,16.1,N/A,,Overcast,220,2012-12-03 12:55:00
7:15 AM,52.7,52.7,100,29.99,2.0,SW,10.4,-,N/A,,Overcast,220,2012-12-03 13:15:00
7:35 AM,51.8,51.8,100,30.00,2.5,SW,8.1,-,N/A,,Scattered Clouds,220,2012-12-03 13:35:00
7:55 AM,51.1,51.1,100,30.00,2.5,SW,8.1,-,N/A,,Clear,230,2012-12-03 13:55:00
8:15 AM,51.3,51.1,99,29.99,3.0,SW,10.4,-,N/A,,Clear,230,2012-12-03 14:15:00
8:35 AM,52.0,51.8,99,30.01,4.0,SW,8.1,-,N/A,,Clear,230,2012-12-03 14:35:00
9:15 AM,55.6,50.0,81,30.02,10.0,WSW,10.4,-,N/A,,Clear,240,2012-12-03 15:15:00
9:35 AM,57.4,48.7,73,30.03,10.0,WSW,12.7,-,N/A,,Clear,240,2012-12-03 15:35:00
9:55 AM,60.6,46.2,59,30.03,10.0,WSW,12.7,19.6,N/A,,Clear,250,2012-12-03 15:55:00
10:15 AM,63.5,42.6,47,30.04,10.0,WSW,13.8,-,N/A,,Clear,240,2012-12-03 16:15:00
10:35 AM,65.8,37.4,35,30.05,10.0,WSW,15.0,24.2,N/A,,Clear,250,2012-12-03 16:35:00
10:55 AM,67.5,36.9,32,30.05,10.0,West,15.0,21.9,N/A,,Clear,260,2012-12-03 16:55:00
11:15 AM,70.0,34.2,27,30.04,10.0,WSW,15.0,20.7,N/A,,Clear,250,2012-12-03 17:15:00
11:35 AM,71.8,30.4,22,30.04,10.0,West,15.0,23.0,N/A,,Clear,260,2012-12-03 17:35:00
11:55 AM,72.5,28.2,19,30.04,10.0,West,16.1,24.2,N/A,,Clear,270,2012-12-03 17:55:00
12:15 PM,72.5,28.4,19,30.03,10.0,WNW,12.7,21.9,N/A,,Clear,290,2012-12-03 18:15:00
12:35 PM,72.9,30.4,21,30.02,10.0,West,15.0,20.7,N/A,,Clear,280,2012-12-03 18:35:00
12:55 PM,73.8,30.4,20,30.01,10.0,West,12.7,17.3,N/A,,Clear,270,2012-12-03 18:55:00
1:15 PM,75.7,28.0,17,29.99,10.0,WNW,10.4,16.1,N/A,,Clear,290,2012-12-03 19:15:00
1:35 PM,76.8,25.5,15,29.98,10.0,West,11.5,-,N/A,,Clear,270,2012-12-03 19:35:00
1:55 PM,77.0,22.8,13,29.98,10.0,WNW,4.6,16.1,N/A,,Clear,300,2012-12-03 19:55:00
2:15 PM,77.7,23.4,13,29.98,10.0,NNW,6.9,-,N/A,,Clear,330,2012-12-03 20:15:00
2:35 PM,77.2,23.5,14,29.98,10.0,WNW,10.4,-,N/A,,Clear,290,2012-12-03 20:35:00
2:55 PM,77.5,23.7,14,29.98,10.0,WNW,5.8,-,N/A,,Clear,290,2012-12-03 20:55:00
3:15 PM,77.0,23.5,14,29.98,10.0,NW,6.9,-,N/A,,Clear,320,2012-12-03 21:15:00
3:35 PM,77.0,23.5,14,29.97,10.0,North,6.9,-,N/A,,Clear,360,2012-12-03 21:35:00
3:55 PM,76.6,23.5,14,29.96,10.0,NW,3.5,-,N/A,,Clear,310,2012-12-03 21:55:00
4:15 PM,76.1,24.1,14,29.97,10.0,West,4.6,-,N/A,,Clear,280,2012-12-03 22:15:00
4:35 PM,76.6,23.9,14,29.97,10.0,WSW,9.2,-,N/A,,Clear,240,2012-12-03 22:35:00
4:55 PM,75.0,23.9,15,29.97,10.0,West,3.5,-,N/A,,Clear,260,2012-12-03 22:55:00
5:15 PM,72.3,24.6,17,29.96,10.0,WSW,3.5,-,N/A,,Clear,250,2012-12-03 23:15:00
5:35 PM,71.1,25.5,18,29.97,10.0,West,4.6,-,N/A,,Clear,260,2012-12-03 23:35:00
5:55 PM,69.1,25.7,20,29.98,10.0,West,4.6,-,N/A,,Clear,260,2012-12-03 23:55:00
6:15 PM,68.2,24.1,19,29.97,10.0,WSW,6.9,-,N/A,,Clear,240,2012-12-04 00:15:00
6:35 PM,63.3,25.2,23,29.99,7.0,North,4.6,-,N/A,,Clear,360,2012-12-04 00:35:00
6:55 PM,60.1,24.1,25,30.00,10.0,Calm,Calm,-,N/A,,Clear,0,2012-12-04 00:55:00
7:15 PM,59.4,27.9,30,30.00,10.0,NW,3.5,-,N/A,,Clear,310,2012-12-04 01:15:00
7:35 PM,56.8,27.3,32,30.02,10.0,North,8.1,-,N/A,,Clear,350,2012-12-04 01:35:00
7:55 PM,57.0,28.9,34,30.02,10.0,NNW,5.8,-,N/A,,Clear,330,2012-12-04 01:55:00
8:15 PM,57.2,26.2,31,30.03,10.0,NNW,4.6,-,N/A,,Clear,330,2012-12-04 02:15:00
8:35 PM,58.5,28.0,31,30.04,10.0,NNW,8.1,-,N/A,,Clear,330,2012-12-04 02:35:00
8:55 PM,56.5,27.9,33,30.06,10.0,NNW,5.8,-,N/A,,Clear,340,2012-12-04 02:55:00
9:15 PM,55.6,28.4,35,30.06,10.0,NNW,4.6,-,N/A,,Clear,330,2012-12-04 03:15:00
9:35 PM,54.7,29.1,38,30.07,10.0,NW,3.5,-,N/A,,Clear,320,2012-12-04 03:35:00
9:55 PM,55.2,29.5,37,30.07,10.0,NW,5.8,-,N/A,,Clear,320,2012-12-04 03:55:00
10:15 PM,53.8,30.2,41,30.07,10.0,NW,4.6,-,N/A,,Clear,320,2012-12-04 04:15:00
10:35 PM,53.8,29.5,39,30.08,10.0,NNW,5.8,-,N/A,,Clear,330,2012-12-04 04:35:00
10:55 PM,54.0,29.7,39,30.09,10.0,NW,5.8,-,N/A,,Clear,310,2012-12-04 04:55:00
11:15 PM,53.4,30.0,41,30.09,10.0,NW,3.5,-,N/A,,Clear,320,2012-12-04 05:15:00
11:35 PM,51.6,30.0,44,30.09,10.0,NW,4.6,-,N/A,,Clear,310,2012-12-04 05:35:00
11:55 PM,51.8,29.7,43,30.10,10.0,NNW,8.1,-,N/A,,Clear,340,2012-12-04 05:55:00